Kremmling, CO

2:57 AM MDT on September 25, 2017 (GMT -0600)
Kremmling

Weather History for K20V - October, 2012

Change the Weather History Date:

Wednesday, October 3, 2012

  Actual Average Record
Temperature  
Mean Temperature 52 °F -  
Max Temperature 73 °F - 77 °F (2010)
Min Temperature 30 °F - 26 °F (2007)
Degree Days  
Heating Degree Days 14    
Month to date heating degree days  
Cooling Degree Days 0    
Month to date cooling degree days  
Growing Degree Days 2 (Base 50)    
Moisture  
Dew Point 14 °F    
Average Humidity 34    
Maximum Humidity 69    
Minimum Humidity 6    
Precipitation  
Precipitation 0.00 in - 0.31 in (2006)
Sea Level Pressure  
Sea Level Pressure 30.14 in    
Wind  
Wind Speed 4 mph (WNW)    
Max Wind Speed 22 mph    
Max Gust Speed 33 mph    
Visibility 10 miles    
Events      
T = Trace of Precipitation, MM = Missing Value Source: NWS Daily Summary

Daily Weather History Graph

Daily Weather History Graph

Search for Another Location

Airport or City:

Trip Planner

Search our weather history database for the weather conditions in past years. The results will help you decide how hot, cold, wet, or windy it might be!

Date:

Astronomy

Oct. 03, 2012 Rise Set
Actual Time 7:04 AM MDT 6:43 PM MDT
Civil Twilight 6:37 AM MDT 7:10 PM MDT
Nautical Twilight 6:05 AM MDT 7:42 PM MDT
Astronomical Twilight 5:34 AM MDT 8:13 PM MDT
Moon 8:37 PM MDT (10/3) 10:30 AM MDT (10/3)
Length of Visible Light 12h 33m
Length of Day
11h 39m
Waning Gibbous, 88% of the Moon is Illuminated
Oct 3
Waning Gibbous
Oct 8
Last Quarter
Oct 15
New
Oct 21
First Quarter
Oct 29
Full

Hourly Weather History & Observations

Time (MDT) Temp. Windchill Dew Point Humidity Pressure Visibility Wind Dir Wind Speed Gust Speed Precip Events Conditions
12:15 AM 37.4 °F - 23.0 °F 56% 30.16 in 10.0 mi Calm Calm - N/A   Clear
12:32 AM 37.4 °F - 21.2 °F 52% 30.16 in 10.0 mi Calm Calm - N/A   Clear
12:55 AM 35.6 °F - 19.4 °F 52% 30.16 in 10.0 mi Calm Calm - N/A   Clear
1:15 AM 33.8 °F - 21.2 °F 60% 30.16 in 10.0 mi Calm Calm - N/A   Clear
1:35 AM 35.6 °F - 23.0 °F 60% 30.17 in 10.0 mi Calm Calm - N/A   Clear
1:55 AM 35.6 °F - 23.0 °F 60% 30.17 in 10.0 mi Calm Calm - N/A   Clear
2:15 AM 35.6 °F 32.8 °F 21.2 °F 56% 30.17 in 10.0 mi SE 3.5 mph - N/A   Clear
2:35 AM 33.8 °F - 21.2 °F 60% 30.17 in 10.0 mi Calm Calm - N/A   Clear
2:54 AM 33.8 °F - 21.2 °F 60% 30.17 in 10.0 mi Calm Calm - N/A   Clear
3:04 AM 33.8 °F - 23.0 °F 65% 30.17 in 10.0 mi Calm Calm - N/A   Clear
3:34 AM 32.0 °F - 23.0 °F 69% 30.17 in 10.0 mi Calm Calm - N/A   Clear
3:54 AM 32.0 °F - 19.4 °F 60% 30.16 in 10.0 mi Calm Calm - N/A   Clear
4:07 AM 30.2 °F - 21.2 °F 69% 30.17 in 10.0 mi Calm Calm - N/A   Clear
4:35 AM 30.2 °F - 21.2 °F 69% 30.16 in 10.0 mi Calm Calm - N/A   Clear
4:55 AM 30.2 °F - 19.4 °F 64% 30.16 in 10.0 mi Calm Calm - N/A   Clear
5:14 AM 30.2 °F - 19.4 °F 64% 30.17 in 10.0 mi Calm Calm - N/A   Clear
5:33 AM 30.2 °F - 19.4 °F 64% 30.17 in 10.0 mi Calm Calm - N/A   Clear
5:55 AM 30.2 °F - 19.4 °F 64% 30.17 in 10.0 mi Calm Calm - N/A   Clear
6:15 AM 30.2 °F - 19.4 °F 64% 30.17 in 10.0 mi Calm Calm - N/A   Clear
6:27 AM 30.2 °F - 19.4 °F 64% 30.17 in 10.0 mi Calm Calm - N/A   Clear
6:45 AM 30.2 °F - 21.2 °F 69% 30.17 in 10.0 mi Calm Calm - N/A   Clear
7:11 AM 30.2 °F - 21.2 °F 69% 30.17 in 10.0 mi Calm Calm - N/A   Clear
7:34 AM 30.2 °F - 21.2 °F 69% 30.16 in 10.0 mi Calm Calm - N/A   Clear
7:55 AM 32.0 °F - 21.2 °F 64% 30.16 in 10.0 mi Calm Calm - N/A   Clear
8:15 AM 33.8 °F - 23.0 °F 65% 30.16 in 10.0 mi Calm Calm - N/A   Clear
8:27 AM 33.8 °F - 21.2 °F 60% 30.16 in 10.0 mi Calm Calm - N/A   Clear
8:52 AM 35.6 °F 32.8 °F 24.8 °F 65% 30.16 in 10.0 mi West 3.5 mph - N/A   Clear
9:14 AM 37.4 °F - 24.8 °F 60% 30.16 in 10.0 mi Calm Calm - N/A   Clear
9:35 AM 41.0 °F - 23.0 °F 49% 30.16 in 10.0 mi Calm Calm - N/A   Clear
9:47 AM 42.8 °F - 23.0 °F 46% 30.16 in 10.0 mi Calm Calm - N/A   Clear
10:10 AM 50.0 °F - 24.8 °F 37% 30.14 in 10.0 mi Calm Calm - N/A   Clear
10:32 AM 53.6 °F - 21.2 °F 28% 30.14 in 10.0 mi East 3.5 mph - N/A   Clear
10:49 AM 59.0 °F - 21.2 °F 23% 30.13 in 10.0 mi ESE 3.5 mph - N/A   Clear
11:15 AM 62.6 °F - 19.4 °F 19% 30.12 in 10.0 mi Calm Calm - N/A   Scattered Clouds
11:28 AM 68.0 °F - 21.2 °F 17% 30.10 in 10.0 mi West 3.5 mph - N/A   Mostly Cloudy
11:55 AM 71.6 °F - 12.2 °F 10% 30.09 in 10.0 mi WSW 18.4 mph 24.2 mph N/A   Mostly Cloudy
12:04 PM 71.6 °F - 10.4 °F 9% 30.09 in 10.0 mi SW 17.3 mph 27.6 mph N/A   Scattered Clouds
12:35 PM 71.6 °F - 8.6 °F 9% 30.08 in 10.0 mi SW 16.1 mph 31.1 mph N/A   Mostly Cloudy
12:53 PM 69.8 °F - 8.6 °F 9% 30.07 in 10.0 mi SW 17.3 mph 28.8 mph N/A   Overcast
1:15 PM 69.8 °F - 5.0 °F 8% 30.07 in 10.0 mi WSW 19.6 mph 26.5 mph N/A   Scattered Clouds
1:30 PM 71.6 °F - 5.0 °F 7% 30.06 in 10.0 mi WSW 13.8 mph 21.9 mph N/A   Mostly Cloudy
1:55 PM 69.8 °F - 5.0 °F 8% 30.06 in 10.0 mi West 18.4 mph 26.5 mph N/A   Mostly Cloudy
2:15 PM 73.4 °F - 8.6 °F 8% 30.06 in 10.0 mi West 13.8 mph 25.3 mph N/A   Mostly Cloudy
2:28 PM 73.4 °F - 8.6 °F 8% 30.06 in 10.0 mi West 18.4 mph 27.6 mph N/A   Mostly Cloudy
2:53 PM 73.4 °F - 8.6 °F 8% 30.05 in 10.0 mi NW 16.1 mph 28.8 mph N/A   Mostly Cloudy
3:15 PM 73.4 °F - 5.0 °F 7% 30.06 in 10.0 mi WNW 16.1 mph 33.4 mph N/A   Scattered Clouds
3:33 PM 71.6 °F - 1.4 °F 6% 30.06 in 10.0 mi West 21.9 mph 33.4 mph N/A   Clear
3:55 PM 73.4 °F - 5.0 °F 7% 30.06 in 10.0 mi WNW 15.0 mph 32.2 mph N/A   Clear
4:14 PM 71.6 °F - 3.2 °F 7% 30.07 in 10.0 mi West 21.9 mph 32.2 mph N/A   Clear
4:34 PM 69.8 °F - 1.4 °F 7% 30.07 in 10.0 mi WNW 20.7 mph 31.1 mph N/A   Clear
4:53 PM 69.8 °F - 3.2 °F 7% 30.08 in 10.0 mi WNW 17.3 mph 33.4 mph N/A   Clear
5:15 PM 68.0 °F - 5.0 °F 8% 30.09 in 10.0 mi WNW 9.2 mph 27.6 mph N/A   Clear
5:35 PM 64.4 °F - 5.0 °F 10% 30.10 in 10.0 mi WNW 11.5 mph 19.6 mph N/A   Clear
5:45 PM 66.2 °F - 5.0 °F 9% 30.10 in 10.0 mi WNW 10.4 mph 21.9 mph N/A   Clear
6:13 PM 66.2 °F - 8.6 °F 11% 30.12 in 10.0 mi NW 9.2 mph - N/A   Scattered Clouds
6:35 PM 60.8 °F - 10.4 °F 14% 30.12 in 10.0 mi West 9.2 mph - N/A   Clear
6:55 PM 60.8 °F - 15.8 °F 17% 30.12 in 10.0 mi West 5.8 mph 18.4 mph N/A   Clear
7:13 PM 55.4 °F - 15.8 °F 21% 30.13 in 10.0 mi NNW 3.5 mph - N/A   Clear
7:35 PM 55.4 °F - 17.6 °F 23% 30.14 in 10.0 mi Calm Calm - N/A   Scattered Clouds
7:49 PM 53.6 °F - 17.6 °F 24% 30.15 in 10.0 mi North 3.5 mph - N/A   Scattered Clouds
8:15 PM 55.4 °F - 12.2 °F 18% 30.16 in 10.0 mi Calm Calm - N/A   Clear
8:35 PM 51.8 °F - 12.2 °F 21% 30.16 in 10.0 mi Calm Calm - N/A   Clear
8:53 PM 53.6 °F - 1.4 °F 12% 30.17 in 10.0 mi Calm Calm - N/A   Scattered Clouds
9:15 PM 53.6 °F - -7.6 °F 8% 30.18 in 10.0 mi West 4.6 mph - N/A   Scattered Clouds
9:26 PM 55.4 °F - -7.6 °F 7% 30.19 in 10.0 mi South 3.5 mph - N/A   Mostly Cloudy
9:55 PM 55.4 °F - -7.6 °F 7% 30.20 in 10.0 mi Calm Calm - N/A   Overcast
10:07 PM 53.6 °F - -7.6 °F 8% 30.21 in 10.0 mi North 6.9 mph - N/A   Overcast
10:29 PM 51.8 °F - 8.6 °F 18% 30.22 in 10.0 mi North 9.2 mph - N/A   Overcast
10:46 PM 50.0 °F - 14.0 °F 24% 30.23 in 10.0 mi NNW 15.0 mph 18.4 mph N/A   Mostly Cloudy
11:09 PM 46.4 °F 39.2 °F 19.4 °F 34% 30.24 in 10.0 mi NNW 18.4 mph 26.5 mph N/A   Overcast
11:33 PM 44.6 °F - 17.6 °F 34% 30.25 in 10.0 mi Calm Calm - N/A   Mostly Cloudy
11:55 PM 42.8 °F 37.5 °F 19.4 °F 39% 30.26 in 10.0 mi NNW 9.2 mph 17.3 mph N/A   Scattered Clouds